Simultaneous Nadir Overpasses (SNOs) Predictions

Prediction of SNOs between GOES-17 and METOP-B Satellite Orbit:

Table of predicted SNOs for the next 14.0 days since TLE Epoch: 9/23/2023
Index Date Time (GOES-17) GOES-17 Lat,Lon METOP-B Lat,Lon Distance(km) Time Diff (sec)
1 09/24/2023 04:36:21 -0.00,-104.68 -0.40,-106.59 216.85 80
2 09/25/2023 04:13:00 0.00,-104.68 0.67,-101.59 351.62 80
3 09/26/2023 16:31:52 -0.00,-104.70 0.34,-106.16 166.73 80
4 09/27/2023 16:13:52 -0.01,-104.70 -0.80,-101.17 402.49 80
5 09/29/2023 04:32:52 0.01,-104.69 -0.25,-105.76 122.92 80
6 09/30/2023 04:09:32 0.01,-104.69 0.89,-100.77 446.13 80
7 10/01/2023 16:28:23 -0.01,-104.71 0.10,-105.34 72.10 80
8 10/02/2023 16:10:23 -0.01,-104.71 -0.98,-100.34 497.29 80
9 10/04/2023 04:29:22 0.02,-104.70 -0.06,-104.94 27.87 80
10 10/06/2023 16:27:33 -0.02,-104.71 -0.05,-104.51 22.63 80
